Theta_e
310 305 296 293 292 293 293 295 296 297 298 299 300 301 301 302 302 302 302 302 303 304 304 305 307 308 310 311 313 311 314 315 314 319 324 325 324 324 325 324 326 325 327 327 326 329 330 318 323 326 323 327 327 327
310 306 297 293 292 292 292 295 296 297 298 299 300 300 301 302 302 302 302 302 302 302 304 304 304 305 307 308 309 310 313 314 316 317 319 323 324 323 324 326 323 327 323 324 323 324 315 314 316 317 320 327 325 321
310 307 298 293 292 292 292 294 296 297 298 299 300 301 302 302 302 303 302 302 301 303 304 305 309 307 306 306 306 311 312 311 315 314 318 319 320 320 325 325 325 321 318 319 320 315 314 313 313 316 319 319 317 314
311 307 298 293 292 292 292 294 295 297 298 299 300 300 301 301 303 303 302 302 300 302 305 307 305 307 307 307 307 307 309 309 311 313 316 317 318 316 318 319 321 319 318 317 315 314 314 312 310 311 312 312 311 310
310 306 297 293 292 292 292 293 294 297 299 299 298 299 300 300 302 305 304 304 303 304 307 307 306 308 307 308 308 307 308 310 313 313 313 315 315 315 315 315 316 317 317 320 320 314 314 311 309 309 309 308 307 307
308 303 297 293 292 292 292 294 294 296 298 298 299 299 299 301 302 303 305 305 304 303 305 308 307 308 307 308 308 309 308 311 312 313 312 313 311 314 315 315 313 312 311 313 311 309 308 306 305 305 306 304 303 302
306 301 297 293 292 292 293 294 295 296 297 298 298 299 300 301 303 304 305 303 303 303 306 309 311 308 306 308 309 309 307 307 309 312 313 313 313 312 312 313 310 309 309 309 310 309 305 303 303 301 301 300 299 299
304 300 296 293 292 293 293 294 295 296 297 297 299 300 303 305 305 306 305 304 304 303 306 309 311 311 306 311 312 307 309 309 308 310 310 311 313 311 311 311 308 306 304 304 304 303 302 301 301 301 301 301 301 299
302 298 295 293 293 293 293 295 295 296 297 299 300 302 306 306 305 304 303 305 305 304 310 308 311 313 307 309 308 309 307 311 307 311 311 311 310 309 307 309 307 307 307 303 303 302 302 302 302 301 301 301 301 299
300 296 294 293 293 293 294 295 295 296 298 301 301 302 305 303 303 305 304 307 307 305 305 310 305 311 308 310 312 311 309 309 313 309 309 312 311 305 303 304 305 304 303 304 304 303 303 301 300 299 299 299 298 297
297 295 293 293 293 294 294 295 297 298 300 301 301 302 301 304 304 304 307 308 307 309 307 308 307 309 307 313 312 307 311 310 313 311 312 312 312 305 302 302 301 301 301 300 299 298 299 299 298 297 297 295 295 294
296 293 293 294 294 294 294 296 298 298 299 299 300 301 301 304 305 307 307 307 309 310 308 308 307 307 308 306 310 309 311 310 312 308 310 311 308 302 301 300 299 299 298 297 296 296 295 295 294 294 294 293 293 292
295 294 293 294 294 295 297 297 298 298 299 301 303 304 304 304 307 309 308 308 309 307 307 308 308 307 308 307 309 309 311 311 307 312 312 310 305 302 300 298 297 296 296 295 294 293 293 292 292 292 292 290 290 290
294 294 293 294 296 297 298 299 299 299 300 303 303 303 305 309 309 308 308 307 306 307 307 308 308 309 307 311 309 312 309 308 312 311 312 308 305 302 300 299 298 297 296 295 293 292 291 291 290 289 289 289 289 288
293 294 295 297 298 299 299 298 299 299 301 302 303 304 306 306 306 306 305 306 305 304 307 308 307 307 310 310 310 310 311 312 311 313 312 306 303 301 300 299 298 297 295 294 293 292 291 290 289 288 288 288 288 288
294 296 298 299 300 299 298 298 298 298 301 302 302 305 304 306 309 308 307 308 306 306 306 307 308 309 310 310 311 311 311 310 311 312 307 304 303 301 300 299 297 295 294 293 292 291 290 289 289 288 288 287 287 287
297 298 299 300 301 300 299 299 300 301 302 305 304 302 303 305 307 307 308 308 304 307 309 309 310 311 308 310 309 309 310 310 310 306 302 303 303 301 300 298 296 294 293 292 291 290 289 288 288 288 287 287 287 287
298 299 300 300 300 299 299 299 302 304 306 303 304 303 302 304 307 307 308 305 306 309 309 309 307 309 310 310 310 310 309 305 304 303 302 302 301 300 298 297 295 293 292 291 292 292 291 290 289 288 287 287 288 288
298 298 298 300 299 298 301 302 301 305 303 302 302 302 303 304 304 304 307 305 308 307 308 307 308 309 309 308 309 308 307 305 304 303 303 301 300 299 297 296 294 293 292 292 293 292 291 290 289 288 288 289 289 289
297 297 297 298 298 300 302 303 302 304 302 302 303 304 304 305 307 307 308 307 305 304 305 307 307 307 307 306 305 307 306 304 302 304 304 302 300 298 297 296 295 294 293 293 293 292 291 290 289 289 289 289 289 289
298 298 298 298 298 299 301 302 303 303 303 304 304 304 305 307 308 308 307 305 304 305 306 306 306 305 303 304 305 306 306 305 305 304 305 304 300 300 298 297 295 294 294 294 295 293 293 291 290 290 289 288 288 288
299 298 298 298 299 298 299 298 301 301 303 303 303 304 307 308 307 308 305 306 305 305 306 306 306 305 305 305 306 305 307 307 306 306 302 299 300 300 299 297 296 296 295 295 295 295 294 293 292 290 289 288 288 288
299 299 300 299 299 297 298 298 303 303 304 304 304 306 306 308 307 304 307 305 305 305 305 306 304 304 306 305 304 303 302 304 305 305 305 301 301 300 299 298 297 297 296 295 294 295 294 293 292 291 290 289 289 288
298 299 301 300 299 300 300 302 301 303 302 304 305 307 308 307 306 307 306 305 304 304 304 304 303 302 303 302 302 302 300 302 303 303 302 302 301 300 300 299 298 298 297 296 295 295 294 293 292 292 292 290 289 289
301 300 302 301 301 301 302 301 302 303 303 303 305 307 307 306 309 307 305 304 304 303 300 299 299 301 302 302 301 301 298 298 300 303 303 301 302 301 300 299 298 298 297 296 295 295 294 294 293 293 292 293 291 290
301 300 300 302 302 302 302 303 304 304 305 306 307 307 306 307 306 305 304 303 303 301 299 299 300 301 300 299 300 300 298 297 298 300 302 301 301 302 301 301 300 298 297 297 297 296 295 294 294 293 293 293 293 292
299 300 300 300 302 302 303 305 305 306 307 307 308 307 305 307 306 304 301 300 300 298 298 298 298 299 299 298 297 296 296 297 297 298 298 299 300 300 301 301 300 301 299 297 297 296 296 295 294 294 294 293 293 293
300 301 302 302 304 305 307 307 307 308 306 304 306 307 307 306 305 302 300 298 297 296 297 297 297 297 297 296 295 296 296 296 297 298 298 297 296 296 298 298 298 298 299 298 297 297 296 295 295 294 294 294 293 293
301 302 302 304 304 305 306 306 307 304 302 304 307 305 303 300 297 297 296 295 295 296 296 296 294 294 293 293 293 294 294 294 298 301 303 303 300 295 295 296 297 297 297 297 297 296 296 296 295 294 294 294 294 293
301 300 302 303 305 307 306 305 304 301 300 300 300 299 299 297 293 292 293 294 295 295 295 294 293 294 293 293 293 293 292 291 292 292 295 295 293 293 293 295 295 295 296 296 296 295 295 294 294 293 294 294 294 293
299 300 303 306 306 305 303 302 301 302 302 301 299 301 300 296 293 291 292 292 292 292 293 292 292 292 292 292 291 291 292 290 289 290 289 289 290 291 292 294 295 296 295 296 295 295 294 294 294 294 294 294 294 294
301 303 305 305 305 303 302 303 303 303 303 302 302 300 298 298 299 294 291 291 292 293 292 291 291 291 290 289 289 289 288 288 288 288 288 289 289 289 290 291 293 295 297 296 296 296 295 295 295 295 295 295 295 294
305 304 304 303 304 304 302 303 302 302 302 302 300 300 300 300 301 294 291 291 292 292 291 290 290 290 289 289 288 288 288 287 287 287 287 287 288 289 289 290 292 294 295 297 297 296 296 295 296 295 295 295 295 295
Wind_Speed
24 21 19 19 20 20 20 20 19 20 21 22 23 23 22 21 21 19 11 6 3 3 11 6 5 6 6 5 5 9 7 2 4 6 4 3 3 2 3 4 3 3 3 2 2 3 3 11 4 1 3 10 17 20
25 21 19 19 19 19 20 19 19 20 21 22 23 22 21 20 19 16 7 9 12 5 6 15 25 25 17 14 5 3 4 3 1 3 2 2 2 2 1 3 5 2 2 4 2 2 6 7 4 6 2 13 14 17
25 22 17 19 19 20 20 19 18 19 19 21 22 22 21 20 17 13 12 12 5 3 6 5 4 13 9 8 8 3 1 2 3 2 2 1 4 3 2 3 3 3 2 4 3 8 9 11 10 7 10 13 16 20
25 21 17 17 18 19 19 18 18 19 21 21 22 22 21 19 19 15 10 9 4 3 3 5 11 16 13 17 5 12 6 4 3 2 2 2 2 3 3 2 3 3 3 6 7 8 11 14 13 14 19 19 20 19
25 20 16 16 17 17 18 18 18 19 22 22 20 20 22 17 18 15 10 6 3 3 3 7 23 7 18 16 10 6 7 1 2 3 3 4 2 3 2 3 4 5 2 0 3 6 11 10 12 15 20 20 19 22
24 20 17 15 17 17 17 17 18 20 22 23 22 19 20 15 15 6 2 4 6 2 3 4 5 7 19 19 9 7 3 3 3 3 3 2 2 1 2 3 10 12 14 10 7 16 18 16 17 16 21 18 17 18
24 21 15 15 16 16 16 16 18 20 22 24 24 23 16 11 9 4 2 1 4 4 2 4 5 3 10 5 4 3 3 2 2 2 3 4 6 6 3 4 7 13 14 12 10 8 14 14 8 12 16 20 25 22
24 20 14 15 16 14 14 15 18 22 24 23 22 18 12 7 5 5 3 4 12 2 2 2 4 5 8 4 4 4 4 2 5 2 1 3 2 3 4 7 8 12 15 16 16 15 14 12 14 14 16 13 16 13
23 19 14 14 16 14 13 14 17 21 23 23 18 9 2 2 1 1 11 7 5 2 2 1 3 4 7 3 2 3 3 3 2 3 3 2 5 5 6 3 4 2 8 13 14 14 12 13 12 11 11 10 12 10
22 18 14 12 13 12 12 13 16 20 21 13 6 2 1 0 11 7 1 2 2 0 0 2 0 3 4 3 3 4 3 2 2 3 1 4 3 3 7 8 10 12 12 11 14 9 9 10 9 9 9 8 8 7
19 15 12 12 12 11 10 11 13 18 8 5 6 2 7 9 2 1 1 1 1 2 0 1 1 3 2 3 3 3 2 2 2 3 2 2 2 2 5 8 9 11 13 13 14 12 10 9 7 7 6 7 6 4
16 12 10 11 12 11 8 9 11 8 5 8 11 8 5 2 1 3 1 1 2 1 1 2 2 2 2 2 2 2 2 1 3 1 2 2 2 7 8 9 9 11 14 14 14 13 13 12 9 7 6 5 4 4
12 9 8 10 10 9 9 9 8 7 9 2 3 2 1 1 1 4 3 2 1 2 0 1 3 1 1 1 2 2 3 2 1 1 2 2 7 8 8 8 9 12 13 13 12 12 11 10 8 6 5 3 2 2
8 8 8 7 9 11 11 10 9 5 2 1 2 3 3 3 3 2 2 1 1 2 1 2 2 2 1 1 1 1 2 2 1 1 2 4 10 10 8 7 9 9 9 10 9 8 8 7 7 7 5 3 2 2
7 7 6 8 4 1 4 1 8 6 1 2 2 3 5 2 2 1 0 1 2 1 1 1 1 2 0 1 1 1 2 1 2 2 2 6 11 10 9 8 8 8 8 9 8 7 7 7 7 7 6 5 5 4
6 3 5 5 2 2 2 2 3 2 2 3 4 3 2 2 2 2 3 2 2 2 1 1 1 1 1 1 1 2 1 1 0 2 3 8 11 10 9 8 8 9 9 9 9 8 8 8 8 6 6 6 5 5
5 3 6 2 1 4 2 2 3 3 3 4 3 3 3 4 3 1 2 2 3 2 1 0 1 1 0 1 2 1 0 1 2 1 5 9 12 11 10 11 10 9 9 8 8 7 6 5 4 4 5 5 4 5
4 5 3 4 3 2 3 5 2 3 5 3 3 1 2 3 1 2 2 3 3 2 1 1 1 1 1 2 1 1 1 2 3 4 6 7 10 12 12 13 12 11 10 8 7 6 3 3 4 4 3 3 4 5
6 4 2 1 3 2 2 4 4 3 3 1 3 2 3 2 2 1 2 4 1 2 3 2 1 1 1 1 1 2 2 2 3 5 6 9 12 13 14 13 13 12 11 9 7 6 5 5 5 4 4 4 5 4
6 6 4 3 3 1 2 2 2 3 2 1 2 2 2 1 2 3 4 2 1 2 1 2 2 1 1 1 0 3 4 5 7 7 5 5 8 12 12 12 11 11 10 9 9 6 6 6 5 5 5 5 6 6
3 5 6 5 3 3 2 2 3 2 1 2 1 1 1 2 3 3 2 2 2 1 1 2 1 2 3 2 3 3 5 5 4 3 4 4 8 9 11 10 12 11 10 9 8 6 4 6 5 6 7 8 8 8
4 10 5 5 2 2 2 3 2 2 2 2 2 1 1 2 2 3 3 1 2 1 2 2 2 2 3 3 3 3 3 5 4 4 3 8 7 8 11 13 14 11 10 11 10 9 7 8 8 9 9 9 9 10
9 5 3 3 2 2 3 2 2 3 2 0 1 1 1 2 2 2 2 2 2 2 5 4 4 5 6 10 8 7 6 5 2 4 7 9 9 11 12 14 15 14 12 12 12 11 10 10 10 10 10 10 9 9
4 3 3 4 4 2 2 3 2 1 1 1 1 2 3 3 3 1 2 1 2 5 4 7 7 4 6 6 1 2 3 3 2 1 2 10 9 12 14 14 15 15 14 14 16 15 14 14 13 11 10 10 9 9
3 3 3 3 3 3 3 3 3 2 2 2 2 2 2 0 2 2 2 2 4 4 3 6 4 3 2 2 3 4 5 6 4 2 4 2 7 7 10 11 12 13 15 16 17 17 16 16 16 14 13 12 11 10
3 4 5 5 3 3 4 4 5 5 2 2 3 2 0 2 2 2 2 4 4 4 4 4 3 3 3 2 2 2 2 4 3 3 2 3 1 4 7 7 8 9 15 16 18 20 19 20 19 18 16 14 15 13
2 3 3 2 2 2 2 2 1 1 4 4 3 4 2 2 2 2 2 1 2 5 7 7 6 4 3 3 3 1 3 3 4 6 6 6 3 3 5 8 10 6 9 17 19 21 23 23 22 22 18 16 16 17
3 1 4 4 3 3 1 2 3 2 2 2 3 3 3 1 2 2 1 2 10 10 8 7 5 5 5 4 3 3 3 6 7 4 3 4 4 3 1 4 10 6 10 14 16 17 19 21 21 22 22 20 17 17
3 2 3 5 4 3 3 1 1 2 1 1 2 2 2 2 1 1 3 6 9 9 10 8 5 5 4 4 4 4 6 8 6 3 10 6 5 6 8 6 1 4 8 11 13 14 17 19 20 21 21 20 18 17
3 4 3 3 2 3 2 2 2 3 2 2 2 2 2 2 2 2 4 7 6 5 5 5 5 3 3 1 2 3 5 7 9 7 3 2 3 5 6 5 5 1 4 9 11 13 15 15 16 15 16 16 16 16
2 3 2 1 2 2 2 3 4 3 3 2 2 2 2 2 2 1 3 4 8 8 8 6 5 4 2 2 2 1 1 3 6 5 5 5 6 5 5 5 3 3 2 7 12 14 16 17 18 18 19 19 19 19
4 5 4 3 2 1 1 2 1 1 2 2 2 2 3 3 4 3 5 7 8 7 6 5 5 4 3 2 2 2 3 5 7 6 6 7 8 8 9 8 6 4 5 4 12 14 19 19 19 20 20 21 20 21
3 4 3 2 2 3 2 2 1 1 1 1 1 1 2 1 1 2 5 7 6 6 9 8 5 3 3 2 0 2 4 6 8 7 7 8 9 9 10 10 9 7 6 4 6 13 17 20 19 19 20 20 20 20
Wind_Direction
297 296 299 309 316 323 329 330 331 330 332 335 338 340 343 351 352 349 306 312 303 278 291 265 278 297 318 342 338 322 333 31 337 18 7 41 50 38 70 29 20 71 90 66 91 104 136 7 298 310 52 141 144 147
293 291 294 303 310 318 326 327 328 331 329 331 334 335 337 345 349 345 307 316 304 239 271 292 282 267 256 268 288 299 298 298 327 286 292 326 81 60 121 102 19 74 37 132 347 35 1 10 328 321 175 143 136 130
287 284 286 297 306 316 322 322 325 324 323 325 327 330 333 337 340 335 306 312 305 272 294 282 311 324 306 281 265 258 273 290 296 288 311 31 84 330 88 77 121 90 52 88 174 19 39 47 60 70 118 117 119 123
281 276 276 288 298 310 315 317 321 319 321 324 326 326 328 332 330 328 298 287 297 278 303 288 319 318 338 355 305 218 278 296 281 323 11 31 80 354 40 31 54 355 351 125 97 116 84 53 68 89 94 103 107 110
274 264 264 278 290 302 309 313 319 319 319 320 322 322 322 327 326 323 285 254 265 333 304 294 308 291 335 359 24 79 174 162 356 20 8 31 26 43 27 37 13 348 104 95 87 82 101 81 83 98 101 102 106 113
265 253 255 271 285 299 306 309 314 319 317 318 317 319 321 319 326 331 275 235 238 291 291 310 315 289 322 349 34 39 37 51 52 15 7 12 340 26 70 72 17 57 59 49 89 88 92 86 81 86 92 93 89 88
255 245 249 266 281 295 299 308 312 319 317 316 316 317 316 304 293 230 277 325 335 306 255 298 303 305 319 323 1 349 21 46 51 84 31 3 11 15 38 54 18 58 59 53 64 109 62 46 79 78 80 81 84 82
247 239 241 262 278 285 295 306 312 316 318 319 319 316 309 288 264 272 211 289 314 214 230 295 295 316 7 340 347 3 344 30 30 82 65 19 357 51 68 67 73 69 63 58 64 68 85 94 86 80 90 96 87 87
237 230 231 259 277 283 295 306 315 315 318 323 316 309 268 219 200 206 303 307 179 242 292 279 325 317 349 356 311 322 335 42 343 40 39 38 8 43 348 48 44 47 93 110 92 89 87 88 90 86 86 82 88 88
228 224 227 246 268 281 295 306 313 317 325 326 335 282 237 98 309 307 185 217 185 92 353 277 107 299 330 341 330 342 17 22 44 33 336 63 66 65 43 77 92 99 109 115 107 96 100 92 91 83 77 78 89 100
218 219 232 258 266 272 285 305 321 327 348 13 5 332 307 327 14 279 242 271 4 211 211 327 259 312 15 321 329 20 350 355 60 2 60 79 75 49 47 71 78 85 86 80 87 87 85 96 101 100 92 91 94 92
208 222 241 261 271 276 289 308 319 341 337 319 298 299 304 325 91 251 253 240 232 298 177 294 332 299 313 300 295 8 345 329 83 328 77 96 101 123 118 100 85 82 87 85 83 85 80 75 75 85 90 90 89 96
213 232 247 260 271 278 290 294 293 292 319 339 233 253 3 242 191 224 200 184 225 198 276 336 319 322 291 316 271 315 347 40 288 63 82 85 143 136 128 117 101 95 92 89 83 80 80 81 77 83 96 88 105 95
211 233 253 266 276 290 296 287 264 258 259 257 242 276 218 191 232 197 184 173 110 215 265 317 293 322 0 297 337 318 25 261 82 87 81 153 162 146 138 130 123 111 102 98 96 93 89 86 84 75 69 62 45 40
212 231 242 266 269 10 1 49 168 172 246 233 221 241 222 291 251 200 146 220 190 230 229 241 215 284 334 286 0 294 158 62 347 43 73 152 154 150 143 133 118 108 99 91 86 78 72 66 60 60 53 55 58 63
194 237 246 146 156 198 154 123 180 161 235 227 230 253 212 268 208 193 205 236 164 172 164 165 254 253 107 345 53 54 92 161 98 358 103 143 146 146 140 128 112 104 96 90 80 73 65 53 48 54 59 48 51 70
167 172 174 193 196 183 220 221 152 201 238 223 226 222 259 283 260 269 195 148 138 191 186 179 235 77 63 179 132 12 125 327 313 91 141 154 154 151 143 132 125 115 105 98 96 86 81 76 55 54 55 37 49 58
179 165 160 154 138 127 178 205 239 235 242 221 244 278 209 247 232 210 185 151 169 180 173 113 117 239 175 178 183 123 87 57 76 125 131 138 141 143 144 139 139 138 136 136 124 104 88 119 79 97 109 95 79 66
166 178 147 112 124 144 211 208 197 263 235 198 255 242 246 249 231 289 159 150 146 109 125 115 207 213 173 136 271 126 122 125 122 113 114 126 144 147 145 144 144 143 142 137 114 82 71 70 93 111 109 106 96 82
216 201 193 173 139 196 240 244 226 262 270 348 266 247 261 327 95 120 139 113 108 121 153 168 211 173 161 125 207 113 108 117 128 131 129 128 142 149 156 156 154 150 142 131 116 105 103 102 106 130 139 129 121 102
182 187 181 167 169 224 282 288 238 245 319 259 289 313 211 186 143 143 140 148 71 325 205 198 198 150 150 159 151 138 140 152 156 164 151 161 164 166 159 161 159 164 162 161 154 143 127 108 122 132 137 132 122 119
163 158 133 178 178 187 261 229 270 310 254 276 277 265 208 161 167 165 158 149 181 176 166 157 173 166 169 177 181 175 156 186 210 207 164 144 163 173 181 178 174 180 182 179 173 162 150 135 123 108 115 123 127 127
145 165 147 136 163 161 266 180 232 214 245 319 245 226 210 171 143 164 165 159 158 143 143 121 104 81 119 119 107 78 71 92 146 210 208 206 200 190 181 185 187 183 181 186 183 175 165 155 140 128 128 133 132 131
138 182 189 175 177 228 191 216 212 218 244 229 244 234 178 145 154 135 166 191 134 145 134 133 139 119 99 92 87 81 44 54 104 47 232 193 190 196 198 196 195 198 194 182 181 180 174 173 166 159 155 146 146 145
178 209 189 188 188 219 212 186 185 192 241 193 227 194 124 112 162 183 200 196 166 145 130 109 92 89 110 114 101 93 56 41 5 8 28 224 200 181 192 201 204 203 190 178 181 182 182 180 181 178 178 179 169 160
207 189 189 184 170 216 197 189 197 192 209 208 193 143 192 164 171 213 219 168 155 162 167 145 133 125 124 123 116 108 18 342 325 273 205 47 69 218 210 198 193 205 204 201 188 185 185 187 188 186 185 189 189 177
217 211 194 223 227 194 206 194 185 165 196 206 185 169 172 177 188 120 137 162 129 143 143 122 110 115 135 140 132 24 338 317 289 268 272 287 293 254 230 218 209 200 220 197 196 192 188 189 192 192 190 190 192 194
236 182 191 178 198 202 208 149 187 208 220 189 161 185 197 170 132 136 111 110 138 138 122 108 106 108 109 102 80 18 346 330 308 258 173 124 97 75 81 208 217 218 208 198 194 193 194 192 192 192 194 196 193 193
213 204 202 192 185 192 198 238 175 126 97 250 169 140 130 81 56 109 109 130 142 136 129 131 119 120 109 88 58 34 21 14 9 226 205 182 171 21 25 30 132 203 198 203 204 202 199 193 191 192 193 194 195 193
221 190 208 171 198 195 157 167 135 113 84 69 104 118 112 102 75 108 142 151 154 143 137 137 141 158 127 80 55 57 49 46 43 37 31 60 15 341 351 23 15 345 200 198 193 194 199 195 192 181 178 182 186 188
160 182 156 118 124 78 85 129 118 106 103 90 58 93 113 136 132 98 137 149 143 136 134 135 129 124 106 87 70 46 117 28 12 6 355 337 325 322 318 325 338 327 286 214 198 191 185 182 184 185 188 192 195 194
181 186 146 133 136 85 173 185 125 99 113 144 132 126 155 172 188 172 180 155 154 153 150 139 160 145 117 117 130 88 14 337 331 321 319 308 300 297 294 285 269 263 256 252 216 203 197 194 191 193 197 199 201 203
151 122 97 99 119 143 356 79 72 112 82 104 132 181 191 234 194 118 173 188 198 197 164 152 162 164 171 168 187 326 333 333 327 318 308 303 299 298 293 278 253 239 249 242 228 210 203 204 206 206 205 206 206 208